User: anonymous   Login
Location: Columbia
(38.9520°N, 92.3340°W)
Time: 03:26:22
(UTC-05:00)
Language:

Iridium 22 - Orbit

View from above orbital plane
View from above orbital plane
View from above satellite
View from above satellite

Ground track
Ground track

The orbit data is extracted from the following two-line orbital elements,

1 24907U 97043E   16147.25553569  .00000227  00000-0  74094-4 0  9993
2 24907  86.3993  57.8308 0002200  84.7064 275.4383 14.34217839982368
Epoch (UTC): 26 May 2016 06:07:58
Eccentricity: 0.0002200
inclination: 86.3993°
perigee height: 776 km
apogee height: 779 km
right ascension of ascending node: 57.8308°
argument of perigee: 84.7064°
revolutions per day: 14.34217839
mean anomaly at epoch: 275.4383°
orbit number at epoch: 98236

The dashed part of the orbit path shows where the satellite is in the earth's shadow,  

DLR